TimeEET,TemperatureF,Dew PointF,Humidity,Sea Level PressureIn,VisibilityMPH,Wind Direction,Wind SpeedMPH,Gust SpeedMPH,PrecipitationIn,Events,Conditions,WindDirDegrees,DateUTC
12:00 AM,68.0,39.2,35,29.98,-9999.0,NNW,4.6,-,N/A,,Clear,330,2012-11-19 22:00:00
1:00 AM,68.0,41.0,37,29.95,-9999.0,NNW,3.5,-,N/A,,Clear,330,2012-11-19 23:00:00
2:00 AM,69.8,39.2,33,29.95,-9999.0,North,6.9,-,N/A,,Clear,350,2012-11-20 00:00:00
3:00 AM,69.8,39.2,33,29.95,-9999.0,North,6.9,-,N/A,,Clear,350,2012-11-20 01:00:00
4:00 AM,68.0,41.0,37,29.95,-9999.0,North,5.8,-,N/A,,Clear,350,2012-11-20 02:00:00
5:00 AM,68.0,39.2,35,29.95,-9999.0,North,4.6,-,N/A,,Clear,350,2012-11-20 03:00:00
6:00 AM,68.0,41.0,37,29.98,6.2,North,5.8,-,N/A,,Partly Cloudy,350,2012-11-20 04:00:00
7:00 AM,69.8,48.2,46,29.98,6.2,North,5.8,-,N/A,,Partly Cloudy,350,2012-11-20 05:00:00
8:00 AM,75.2,44.6,34,30.01,6.2,North,9.2,-,N/A,,Partly Cloudy,360,2012-11-20 06:00:00
9:00 AM,80.6,46.4,30,30.01,6.2,North,11.5,-,N/A,,Scattered Clouds,10,2012-11-20 07:00:00
10:00 AM,82.4,50.0,32,30.01,6.2,NNE,9.2,-,N/A,,Scattered Clouds,30,2012-11-20 08:00:00
11:00 AM,86.0,48.2,27,29.98,6.2,NNE,9.2,-,N/A,,Scattered Clouds,20,2012-11-20 09:00:00
12:00 PM,84.2,50.0,30,29.95,-9999.0,NNE,9.2,-,N/A,,Clear,30,2012-11-20 10:00:00
1:00 PM,86.0,46.4,25,29.95,-9999.0,NE,6.9,-,N/A,,Clear,40,2012-11-20 11:00:00
2:00 PM,87.8,46.4,24,29.92,-9999.0,NE,5.8,-,N/A,,Clear,50,2012-11-20 12:00:00
3:00 PM,86.0,46.4,25,29.92,-9999.0,ENE,4.6,-,N/A,,Clear,60,2012-11-20 13:00:00
4:00 PM,82.4,48.2,30,29.92,-9999.0,ENE,4.6,-,N/A,,Clear,60,2012-11-20 14:00:00
5:00 PM,77.0,44.6,32,29.92,-9999.0,Variable,2.3,-,N/A,,Clear,0,2012-11-20 15:00:00
6:00 PM,75.2,50.0,41,29.95,-9999.0,North,4.6,-,N/A,,Clear,10,2012-11-20 16:00:00
7:00 PM,73.4,50.0,44,29.95,-9999.0,North,4.6,-,N/A,,Clear,10,2012-11-20 17:00:00
8:00 PM,73.4,48.2,41,29.95,-9999.0,NNW,3.5,-,N/A,,Clear,340,2012-11-20 18:00:00
9:00 PM,71.6,48.2,43,29.95,-9999.0,North,5.8,-,N/A,,Clear,360,2012-11-20 19:00:00
10:00 PM,71.6,51.8,50,29.95,-9999.0,NNW,5.8,-,N/A,,Clear,340,2012-11-20 20:00:00
11:00 PM,71.6,53.6,53,29.95,-9999.0,NNW,5.8,-,N/A,,Clear,340,2012-11-20 21:00:00